#timestamp,LO_Frequency,Hit,StdDev 
1538924415.3,286047002.6,N
1538924435.1,286046999.9,N
1538924455.8,286046999.9,N
1538924475.7,286047000.5,N
1538924495.5,286046998.2,N
1538924515.4,286046998.8,N
1538924535.2,286046999.3,N
1538924555.0,286046996.5,N
1538924555.9,286046996.5,N
1538924575.8,286046997.5,N
1538924595.6,286046996.2,N
1538924615.4,286046994.0,Y
1538924635.3,286046994.1,P
1538924655.1,286046994.0,N
1538924675.9,286046994.3,N
1538924695.7,286046994.3,N
1538924715.5,286046994.3,N
1538924735.4,286046991.7,Y
1538924755.2,286046997.5,P
1538924775.1,286046997.9,N
1538924776.0,286046997.9,N
1538924795.8,286046997.5,N
1538924815.6,286046997.3,N
1538924835.5,286046997.0,Y
1538924855.3,286047002.7,P
1538924875.1,286047002.1,N
1538924895.9,286047003.9,N
1538924915.7,286047003.1,N
1538924935.6,286047005.8,N
1538924955.4,286047005.9,N
1538924975.2,286047005.8,N
1538924995.1,286047004.7,N
1538924996.0,286047004.7,N
1538925015.8,286047005.2,N
1538925035.7,286047004.8,N
1538925055.5,286047004.5,N
1538925075.3,286047005.8,N
1538925095.2,286047003.5,N
1538925115.9,286047001.4,N
1538925135.7,286047002.1,N
1538925155.6,286047000.4,N
1538925175.8,286047011.9,Y
1538925195.6,286046997.2,P
1538925215.5,286046996.8,N
1538925235.3,286046997.7,N
1538925255.1,286046997.0,N
1538925275.9,286046997.7,N
1538925295.7,286046997.5,N
1538925315.6,286046995.0,N
1538925335.4,286046996.9,N
1538925355.2,286046995.1,N
1538925375.1,286046997.8,N
1538925376.0,286046997.8,N
1538925395.8,286046994.9,N
1538925415.6,286046995.3,N
1538925435.5,286046995.1,N
1538925455.3,286046993.4,Y
1538925475.2,286046999.5,P
1538925495.9,286046999.3,N
1538925515.7,286046998.7,N
1538925535.6,286046999.3,N
1538925555.4,286046997.8,N
1538925575.2,286046997.5,N
1538925595.0,286046995.0,Y
1538925595.9,286046995.0,P
1538925615.7,286046996.6,N
1538925635.6,286046997.3,N
1538925655.4,286046997.7,N
1538925675.3,286046997.4,N
1538925695.1,286046996.6,Y
1538925696.0,286046996.6,P
1538925715.8,286047000.6,N
1538925735.7,286047001.0,N
1538925755.5,286046998.5,N
1538925775.3,286047000.9,N
1538925795.2,286047000.5,N
1538925815.0,286047000.9,N
1538925815.9,286047000.9,N
1538925835.8,286046998.4,N
1538925855.6,286046998.5,N
1538925875.1,286046999.4,N
1538925895.8,286046999.0,N
1538925915.7,286046999.0,N
1538925935.5,286046999.4,N
1538925955.4,286046997.5,N
1538925975.2,286046995.4,Y
1538925995.0,286046997.5,P
1538925995.9,286046997.5,N
1538926015.8,286046995.0,P
1538926035.6,286046996.2,N
1538926055.5,286046993.6,Y
1538926075.3,286046997.7,P
1538926095.1,286046995.3,P
1538926115.9,286046994.9,P
1538926135.7,286046997.5,N
1538926155.5,286046997.6,N
1538926175.3,286046996.8,N
1538926195.2,286046996.5,Y
1538926215.9,286047000.1,P
1538926235.7,286047001.6,N
1538926255.6,286047002.4,N
1538926275.4,286047002.1,N
1538926295.2,286047002.0,N
1538926315.1,286047004.1,N
1538926316.0,286047004.1,N
1538926335.4,286047001.4,N
1538926355.2,286047001.7,N
1538926375.1,286047003.1,N
1538926376.0,286047003.1,N
1538926395.8,286047003.6,N
1538926415.7,286047003.4,N
1538926435.5,286047003.1,N
1538926455.3,286047001.4,N
1538926475.2,286047004.4,N
1538926495.9,286047003.7,N
1538926515.7,286047003.4,N
1538926535.6,286047004.1,N
1538926555.4,286047004.2,N
1538926575.2,286047004.1,N
1538926595.6,286047004.2,N
1538926615.4,286047004.8,N
1538926635.3,286047007.4,Y
1538926655.1,286047004.4,P
1538926675.9,286047004.0,P
1538926695.7,286047004.9,P
1538926715.5,286047008.2,Y
1538926735.4,286047004.6,P
1538926755.2,286047005.0,P
1538926775.0,286047003.0,P
1538926775.9,286047003.0,Y
1538926795.0,286046998.4,P
1538926795.9,286046998.4,N
1538926815.8,286046998.4,N
1538926835.6,286046998.5,N
1538926855.4,286046999.6,N
1538926875.3,286046993.3,Y
1538926895.1,286046992.1,P
1538926915.8,286046993.0,N
1538926935.6,286046992.6,N
1538926955.5,286046992.5,N
1538926975.3,286046992.8,N
1538926995.2,286046990.3,Y
1538927045.9,286046996.9,E
1538927055.8,286047000.7,N
1538927075.7,286047002.0,P
1538927095.5,286047005.4,P
1538927115.4,286047006.1,Y
1538927135.2,286047004.2,P
1538927155.0,286047000.8,N
1538927155.9,286047000.8,N
1538927175.8,286046994.9,Y
1538927195.6,286046990.3,P
1538927215.5,286046991.4,N
1538927235.3,286046986.9,N
1538927255.1,286046987.4,N
1538927275.9,286046987.1,N
1538927295.7,286046988.2,N
1538927315.5,286046987.9,N
1538927335.4,286046988.4,N
1538927355.2,286046985.6,Y
1538927375.1,286046995.8,P
1538927376.0,286046995.8,N
1538927395.8,286046994.6,N
1538927415.6,286046994.0,N
1538927435.5,286046992.1,Y
1538927455.3,286046998.4,P
1538927475.2,286047001.9,N
1538927495.0,286047005.8,N
1538927495.9,286047005.8,N
1538927515.7,286047004.9,N
1538927535.6,286047007.8,N
1538927555.4,286047008.1,N
1538927575.3,286047007.9,N
1538927595.2,286047007.9,N
1538927615.1,286047009.3,N
1538927616.0,286047009.3,N
1538927635.8,286047012.5,N
1538927655.7,286047014.9,Y
1538927675.5,286047010.9,P
1538927695.3,286047015.5,P
1538927715.2,286047013.2,P
1538927735.0,286047012.9,Y
1538927735.9,286047012.9,P
1538927755.8,286047005.3,P
1538927775.6,286047003.7,N
1538927795.4,286047001.6,N
1538927815.3,286047006.0,N
1538927835.1,286047006.4,N
1538927885.9,286046999.1,E
1538927895.8,286046995.4,N
1538927915.6,286046993.5,P
1538927935.5,286046993.2,P
1538927955.3,286046989.3,Y
1538927975.1,286046991.7,P
1538927995.9,286046992.5,P
